Temperature
7 8 8 9 9 9 10 10 10 10 10 10 10 10 11 11 11 11 11 11 11 11 11 11 11 11 10 10 10 10 10 10 10 9 9 9 9 10 10 10 10 10 10
7 7 8 8 8 9 9 10 10 10 10 10 10 10 10 10 10 10 11 11 11 11 11 11 11 10 10 10 10 10 10 9 9 9 9 9 8 9 9 9 9 9 9
6 6 7 7 8 8 8 9 9 10 10 10 10 10 10 10 10 10 10 10 10 10 11 10 10 10 10 10 10 9 9 9 9 9 9 9 9 8 9 9 9 9 9
5 5 6 6 7 7 8 8 9 9 9 9 10 10 10 10 10 10 10 10 10 10 10 10 10 10 10 9 9 9 9 9 8 9 9 9 9 8 8 8 9 9 9
4 4 5 5 6 7 7 8 8 9 9 9 9 9 9 10 10 10 10 10 10 10 10 10 10 10 9 9 9 9 9 8 8 8 8 8 8 8 8 8 8 8 8
4 4 4 5 6 6 7 7 8 8 8 9 9 9 9 9 9 9 9 9 9 9 9 9 9 9 9 9 9 9 8 8 8 8 8 8 8 8 8 8 8 8 8
2 3 3 4 5 5 6 7 7 8 8 8 8 9 9 9 9 9 9 9 9 9 9 9 9 9 9 9 9 8 8 8 8 8 8 8 8 8 8 8 7 7 7
2 2 2 3 4 5 5 6 7 7 7 8 8 8 8 8 8 9 9 8 9 9 9 9 9 9 9 8 8 8 8 8 8 8 7 7 7 7 7 7 7 7 7
1 1 2 3 3 4 4 5 6 6 7 7 7 8 8 8 8 8 8 8 8 8 8 9 9 8 8 8 8 8 8 8 7 7 7 7 7 7 7 7 7 7 6
1 1 2 2 3 3 4 4 5 5 6 6 7 7 7 7 8 8 8 8 8 8 8 8 8 8 8 8 8 7 7 7 7 7 7 7 7 7 7 7 7 7 6
1 1 1 2 2 3 3 4 4 5 5 6 6 6 7 7 7 7 7 7 7 7 7 7 8 8 8 7 7 7 7 7 7 7 7 7 6 6 6 6 6 6 6
0 1 1 1 2 2 3 3 4 4 5 5 5 6 6 6 7 7 7 7 7 7 7 7 7 7 7 7 7 7 7 7 7 7 7 6 6 6 6 6 6 6 6
-0 0 1 1 1 2 2 2 3 3 4 4 5 5 5 6 6 6 6 6 6 6 6 7 7 7 7 7 7 6 6 6 6 6 6 6 6 6 6 6 6 6 6
-1 -1 -0 0 1 1 2 2 2 3 3 4 4 5 5 5 5 6 6 6 6 6 6 6 6 6 6 6 6 6 6 6 6 6 6 6 6 6 6 6 5 5 5
-2 -1 -1 -0 0 1 1 1 2 2 3 3 3 4 4 5 5 5 5 5 5 5 5 5 5 5 6 6 6 5 5 5 5 5 5 5 5 5 5 5 5 5 5
-2 -2 -2 -1 -1 0 1 1 1 2 2 2 3 3 4 4 4 4 4 5 5 5 5 5 5 5 5 5 5 5 5 5 5 5 5 5 5 5 5 5 5 4 4
-3 -3 -2 -2 -1 -1 -0 0 1 1 1 2 2 3 3 3 3 3 4 4 4 4 4 4 4 4 4 5 4 4 4 4 4 4 4 4 5 4 4 4 4 4 4
-3 -3 -2 -2 -1 -1 -1 -0 0 0 1 1 1 2 2 2 2 3 3 3 3 3 4 4 4 4 4 4 4 4 4 4 4 4 4 4 4 4 4 4 4 4 3
-4 -3 -2 -2 -2 -1 -1 -1 -0 -0 0 0 1 1 1 2 2 2 2 2 2 3 3 3 3 3 3 3 3 3 3 3 3 3 3 3 3 3 3 3 4 3 3
-4 -3 -3 -2 -2 -2 -1 -1 -1 -1 -1 -0 -0 0 1 1 1 1 1 2 2 2 2 2 2 2 2 2 2 2 2 2 2 2 2 3 3 3 3 3 3 3 3
-4 -3 -3 -3 -2 -2 -2 -2 -1 -1 -1 -1 -1 -0 0 0 0 0 1 1 1 1 1 1 2 2 2 2 2 2 2 2 2 2 2 2 2 2 2 2 2 2 2
-4 -4 -3 -3 -3 -2 -2 -2 -2 -2 -2 -1 -1 -1 -1 -0 -0 -0 0 0 0 1 1 1 1 1 1 1 1 1 1 1 1 1 1 1 1 1 1 1 1 1 1
-5 -4 -4 -3 -3 -3 -3 -2 -2 -2 -2 -2 -1 -1 -1 -1 -1 -1 -0 -0 -0 -0 -0 -0 -0 0 0 0 0 1 1 1 1 1 1 1 1 1 1 1 1 0 0
-5 -5 -4 -4 -3 -3 -3 -3 -3 -3 -2 -2 -2 -2 -2 -2 -1 -1 -1 -1 -1 -1 -1 -1 -1 -1 -1 -0 -0 -0 -0 -0 -0 -0 -0 -0 -0 -0 -0 -0 -1 -1 -1
-6 -5 -5 -5 -4 -4 -4 -3 -3 -3 -3 -3 -3 -2 -2 -2 -2 -2 -2 -2 -2 -2 -2 -2 -1 -1 -1 -1 -1 -1 -1 -1 -1 -1 -1 -1 -1 -1 -1 -1 -1 -1 -1
-6 -6 -6 -5 -5 -4 -4 -4 -4 -4 -3 -3 -3 -3 -3 -3 -3 -3 -3 -3 -2 -2 -2 -2 -2 -2 -2 -2 -2 -2 -2 -2 -2 -2 -2 -2 -2 -2 -2 -2 -2 -2 -2
Wind_Speed
6 5 5 6 6 6 7 8 8 8 7 6 7 7 7 6 6 6 7 9 10 10 9 7 8 8 7 7 8 7 7 5 5 3 3 2 2 2 1 2 2 3 3
6 5 5 5 5 6 7 7 7 8 8 7 8 6 7 6 6 6 7 8 9 10 9 9 8 8 7 8 8 8 6 5 5 4 3 3 3 2 1 2 2 2 2
5 5 4 4 5 5 6 6 7 7 8 8 7 6 6 5 5 6 6 7 9 10 9 9 8 8 8 8 9 9 8 6 5 4 3 3 3 2 3 3 3 3 2
4 3 3 3 4 4 4 5 6 7 7 8 8 10 9 8 7 7 6 7 9 9 9 9 9 8 7 8 9 9 8 8 6 4 3 2 1 2 3 3 3 3 3
3 2 2 2 3 3 3 3 5 5 6 7 9 10 9 7 6 7 7 7 8 9 9 9 9 8 7 8 8 8 9 8 8 6 5 4 2 3 3 3 3 3 3
2 2 1 1 1 1 2 2 4 5 5 6 8 8 9 9 8 9 8 7 6 6 8 9 8 8 8 8 8 8 9 9 9 7 6 5 4 4 3 3 3 3 3
2 2 2 1 0 1 1 2 4 4 5 5 6 7 8 9 9 9 8 8 7 6 8 8 8 8 8 8 8 8 8 8 9 8 7 6 6 4 3 3 2 2 2
2 2 2 1 1 1 1 2 3 4 4 5 5 6 6 5 6 7 7 7 6 7 8 9 9 9 8 8 8 7 7 7 8 8 8 6 6 5 4 4 3 2 2
3 2 2 1 1 1 1 1 2 3 4 4 5 5 5 5 5 5 6 6 5 5 7 8 8 8 8 8 8 6 7 7 8 8 8 6 5 5 5 4 4 4 4
4 3 2 2 2 1 1 1 1 2 2 3 4 3 5 5 5 5 5 6 6 6 7 7 7 7 8 8 8 7 7 7 7 6 7 7 6 5 4 5 5 5 5
3 2 2 3 3 3 2 2 2 1 1 1 3 3 4 5 5 5 5 5 5 6 6 7 7 8 8 8 8 8 8 8 7 7 8 8 7 6 5 5 5 5 4
3 2 3 3 3 3 2 2 2 1 1 1 1 2 3 4 5 5 4 4 5 5 6 6 7 7 7 7 8 8 8 8 8 8 8 8 6 7 6 5 6 5 5
4 3 3 3 3 3 3 3 2 2 1 0 1 2 2 3 4 4 4 4 5 5 5 6 6 7 7 7 8 8 8 8 8 7 8 7 7 7 5 6 5 5 4
5 5 4 4 4 3 3 3 3 3 2 1 0 1 2 2 3 3 3 4 4 5 5 5 6 6 6 7 7 7 7 7 7 7 7 7 7 7 7 6 6 5 5
6 6 6 5 4 4 3 3 3 3 2 1 1 1 1 2 2 2 3 3 3 4 4 5 5 5 5 6 6 7 7 6 6 6 6 6 6 6 6 5 6 6 5
6 7 7 6 5 5 4 4 4 3 2 2 2 2 1 1 1 1 2 3 3 3 3 4 5 5 4 5 6 6 6 6 6 5 5 5 6 6 6 6 6 7 7
6 7 7 6 6 5 4 4 4 3 2 2 2 2 1 1 1 1 1 2 2 2 3 4 4 4 4 5 6 6 5 6 6 6 5 4 4 5 5 5 4 5 5
7 7 7 7 6 6 5 4 3 3 2 2 2 2 1 1 1 1 1 1 1 2 2 3 4 4 3 4 5 5 4 4 4 5 5 5 5 5 5 4 4 3 3
7 7 7 7 6 6 5 3 3 3 3 3 3 2 2 1 1 1 2 1 1 2 2 2 3 3 3 4 5 4 3 3 3 3 3 4 4 5 6 5 4 3 2
7 7 7 7 6 6 4 3 3 3 3 3 3 3 2 1 2 1 1 1 1 1 1 1 2 3 3 4 5 5 4 4 3 2 2 3 4 5 6 5 5 5 3
8 8 7 6 6 6 4 3 3 4 4 4 3 2 2 1 1 1 1 1 1 1 1 1 1 1 2 3 4 4 3 4 4 3 2 2 4 4 4 4 4 5 3
9 8 7 6 6 6 4 3 4 4 4 3 2 2 2 1 1 0 0 0 1 2 1 1 1 1 1 2 3 4 3 3 3 3 3 2 4 4 3 3 3 4 3
8 7 7 6 6 6 5 4 5 4 3 2 2 2 2 1 1 0 1 1 1 2 2 2 1 1 0 1 3 4 4 3 2 2 3 3 3 3 3 3 4 3 3
7 7 6 6 6 6 6 5 5 3 2 2 2 2 1 1 1 1 0 1 1 2 2 2 2 1 1 1 2 2 3 3 3 3 3 3 3 2 2 3 2 2 2
7 6 5 6 6 6 6 5 4 3 2 2 2 1 1 1 1 1 1 0 1 2 2 2 2 2 2 2 2 2 3 3 3 3 2 2 2 2 2 2 2 2 2
6 5 6 6 6 6 6 5 4 3 2 1 1 1 1 0 0 1 2 4 2 2 1 1 2 2 2 2 3 3 3 4 4 3 3 3 3 3 3 3 3 2 3
Wind_Direction
255 250 234 223 212 204 197 191 184 184 178 181 182 182 184 181 177 174 177 179 175 172 168 161 161 165 168 168 164 158 154 150 149 146 142 134 129 135 144 158 155 147 152
269 261 246 225 211 203 201 194 191 189 188 189 187 186 181 183 179 175 179 182 176 173 173 170 168 171 171 170 170 164 163 163 168 173 169 178 184 182 178 179 181 183 175
262 249 239 225 218 212 207 199 196 195 192 185 179 172 171 172 178 184 185 188 183 178 176 175 174 175 176 179 179 178 175 175 181 192 190 194 205 180 182 195 198 200 196
266 254 240 238 234 225 212 201 194 191 190 184 181 182 184 186 188 185 187 188 187 184 181 180 178 177 181 186 185 187 186 182 185 195 218 232 182 193 188 193 204 209 213
272 267 252 252 240 224 200 189 182 181 187 188 185 186 191 191 182 179 183 187 186 186 183 185 183 182 186 190 190 191 193 192 193 194 195 196 191 222 217 214 205 212 214
296 310 295 295 223 186 161 162 169 174 179 185 186 189 189 186 180 180 184 187 186 186 189 189 190 190 190 192 195 199 201 202 201 201 201 200 198 204 209 226 215 217 214
333 334 339 343 91 103 132 148 162 172 179 183 189 191 191 188 189 188 190 189 188 192 195 194 196 197 197 196 196 201 206 207 205 205 209 212 216 207 206 208 210 230 239
3 342 334 348 80 91 108 138 157 173 181 183 189 192 192 192 195 196 194 196 195 193 194 198 199 198 197 197 196 200 206 208 210 211 211 214 216 208 202 208 200 217 235
351 343 346 8 54 79 106 123 156 172 181 185 185 191 190 191 194 195 200 200 199 194 192 194 196 197 197 198 197 202 204 208 212 214 214 217 217 212 210 206 205 217 230
341 346 354 14 14 17 44 73 114 141 170 187 187 193 195 195 197 196 199 199 196 193 192 195 197 198 198 199 201 205 207 208 212 212 214 218 218 211 206 205 214 220 226
333 352 16 19 17 19 29 43 66 88 127 179 186 190 196 197 197 197 201 200 198 195 195 196 199 199 200 200 201 203 204 208 210 211 214 217 216 211 207 208 210 215 217
341 20 30 27 21 14 14 22 29 40 54 184 186 193 205 199 194 196 202 199 198 195 197 197 200 201 201 201 202 202 201 206 209 212 213 216 211 213 211 208 211 213 213
7 17 23 19 13 5 359 6 5 2 354 318 195 189 206 206 200 202 203 202 200 197 193 195 200 201 201 202 202 205 204 207 209 209 211 210 204 209 210 210 212 213 211
9 10 9 6 4 358 351 351 348 353 348 337 274 220 224 220 218 209 204 203 203 200 198 197 201 202 202 202 201 203 205 209 211 208 210 210 208 209 207 206 209 206 207
3 3 359 356 355 352 349 342 341 346 343 341 341 309 274 223 222 216 207 203 202 204 201 199 200 201 202 203 203 204 203 204 208 209 209 209 208 208 205 204 205 200 203
351 351 351 350 348 343 337 338 340 339 340 336 327 331 326 312 239 230 204 198 195 193 192 197 198 199 202 193 197 202 202 201 203 208 212 206 200 197 195 198 202 203 205
339 341 340 338 335 329 323 321 325 331 334 336 331 333 327 302 271 242 208 198 198 191 189 186 190 198 198 184 190 195 200 202 204 206 207 204 199 196 201 196 198 212 215
331 330 329 329 329 329 323 323 330 337 335 335 337 331 326 314 291 249 230 224 202 193 192 192 192 193 190 178 184 183 193 201 203 204 204 202 197 191 190 191 197 212 224
318 318 319 319 323 327 325 328 336 341 340 334 331 324 319 302 287 261 233 220 202 194 190 189 184 184 184 170 175 175 180 184 195 199 200 202 195 182 179 181 184 197 221
319 321 322 321 325 328 330 331 331 332 325 319 315 313 308 284 269 266 258 226 198 188 170 174 182 189 191 174 174 179 181 184 188 192 196 191 187 180 184 190 189 199 211
321 324 323 324 324 327 331 320 319 315 313 311 311 320 317 295 278 275 267 222 180 167 163 161 185 195 192 176 177 186 193 187 184 188 196 195 179 181 186 202 207 201 196
324 325 322 320 325 332 327 312 307 310 315 316 319 326 328 327 317 228 197 193 183 175 181 173 194 202 183 167 171 176 187 187 184 192 197 184 171 178 181 191 184 179 178
318 320 317 319 328 332 328 312 308 313 319 325 326 332 349 2 22 153 162 174 199 194 198 197 198 202 174 147 144 160 168 172 186 183 168 167 168 174 176 171 174 186 196
313 316 320 323 324 329 328 319 314 314 321 328 331 339 2 20 32 23 202 192 202 205 203 202 200 197 199 192 175 172 167 166 171 167 154 150 153 166 162 171 187 206 208
313 315 313 313 316 323 328 327 325 326 324 328 331 346 9 26 36 30 11 294 274 244 222 219 212 207 212 209 187 193 195 194 187 169 168 179 182 186 191 197 201 203 205
311 315 314 313 316 321 326 329 331 332 327 330 336 339 346 14 37 55 33 31 22 19 344 288 258 266 243 198 194 199 198 187 172 174 191 200 203 206 208 208 211 218 224
Height
1484 1485 1486 1487 1489 1491 1493 1496 1499 1501 1504 1507 1510 1513 1516 1519 1522 1524 1527 1529 1532 1534 1537 1539 1541 1543 1545 1548 1550 1552 1554 1556 1558 1561 1562 1563 1564 1565 1566 1567 1567 1568 1569
1481 1481 1482 1484 1485 1487 1489 1492 1495 1497 1501 1504 1507 1510 1513 1516 1519 1522 1524 1526 1528 1532 1534 1537 1539 1541 1543 1545 1548 1550 1552 1554 1556 1558 1560 1562 1564 1563 1564 1564 1565 1566 1567
1479 1479 1479 1480 1481 1483 1485 1488 1491 1494 1497 1500 1504 1507 1510 1513 1515 1518 1521 1524 1526 1529 1531 1534 1536 1538 1540 1543 1545 1547 1549 1551 1554 1556 1558 1560 1561 1561 1562 1562 1563 1564 1565
1477 1477 1477 1477 1478 1480 1481 1484 1487 1490 1493 1497 1500 1503 1506 1508 1511 1514 1518 1521 1523 1526 1528 1531 1533 1535 1538 1540 1542 1544 1547 1549 1550 1553 1555 1557 1557 1559 1559 1560 1561 1561 1562
1475 1474 1475 1475 1476 1477 1479 1481 1484 1486 1489 1493 1496 1500 1503 1506 1509 1512 1515 1517 1520 1522 1525 1528 1530 1532 1534 1537 1539 1541 1543 1545 1547 1549 1551 1553 1554 1555 1557 1557 1558 1558 1559
1473 1472 1473 1473 1474 1474 1475 1478 1481 1483 1486 1489 1493 1496 1499 1502 1505 1508 1511 1514 1516 1519 1522 1524 1527 1529 1531 1533 1536 1538 1540 1542 1544 1546 1548 1549 1551 1552 1553 1554 1555 1555 1556
1471 1470 1470 1470 1471 1472 1473 1475 1478 1480 1483 1486 1489 1492 1496 1499 1502 1505 1508 1510 1513 1515 1517 1520 1523 1525 1527 1530 1532 1534 1537 1538 1540 1542 1544 1546 1547 1549 1550 1551 1552 1552 1553
1470 1469 1469 1469 1470 1471 1472 1473 1475 1478 1480 1483 1486 1490 1493 1496 1499 1502 1505 1507 1509 1511 1514 1517 1519 1521 1524 1526 1528 1530 1533 1535 1537 1538 1540 1542 1543 1545 1546 1548 1549 1549 1550
1470 1470 1469 1469 1469 1470 1471 1472 1474 1476 1478 1481 1484 1486 1489 1492 1495 1498 1501 1504 1506 1508 1511 1513 1515 1518 1520 1522 1524 1526 1528 1531 1533 1534 1536 1538 1539 1541 1542 1543 1545 1547 1547
1470 1470 1469 1469 1469 1469 1470 1470 1472 1474 1476 1478 1481 1483 1486 1489 1492 1495 1497 1500 1502 1505 1507 1509 1511 1514 1516 1518 1520 1522 1524 1526 1528 1529 1531 1533 1535 1536 1537 1539 1541 1542 1543
1471 1470 1470 1469 1469 1469 1469 1470 1471 1472 1474 1476 1478 1480 1483 1486 1488 1491 1494 1496 1498 1501 1503 1505 1507 1509 1511 1514 1516 1517 1519 1521 1523 1524 1526 1528 1530 1531 1533 1534 1536 1537 1538
1472 1471 1470 1470 1469 1469 1469 1469 1469 1470 1471 1473 1475 1478 1480 1482 1485 1487 1490 1492 1495 1497 1499 1501 1503 1505 1507 1509 1511 1513 1515 1517 1518 1520 1521 1523 1525 1526 1528 1530 1531 1532 1533
1472 1471 1470 1470 1469 1469 1469 1469 1469 1469 1470 1472 1473 1475 1477 1479 1481 1484 1486 1489 1491 1493 1495 1497 1499 1501 1503 1505 1506 1508 1510 1512 1513 1515 1517 1518 1520 1521 1523 1525 1526 1528 1529
1472 1471 1470 1470 1470 1470 1469 1469 1469 1469 1469 1470 1472 1473 1474 1476 1478 1480 1483 1485 1487 1489 1491 1493 1495 1497 1499 1500 1502 1504 1506 1507 1509 1511 1512 1514 1515 1517 1519 1520 1522 1523 1524
1472 1471 1470 1470 1469 1469 1469 1468 1468 1468 1468 1469 1470 1471 1473 1474 1475 1477 1479 1481 1484 1486 1488 1490 1491 1492 1494 1496 1498 1499 1501 1503 1505 1506 1508 1510 1511 1513 1515 1516 1517 1519 1520
1473 1472 1471 1470 1469 1468 1467 1467 1467 1467 1467 1467 1468 1469 1470 1471 1473 1474 1476 1478 1480 1482 1484 1485 1487 1488 1490 1492 1494 1496 1497 1498 1500 1502 1504 1506 1507 1509 1510 1512 1513 1515 1516
1473 1472 1471 1470 1469 1468 1467 1466 1466 1466 1466 1466 1467 1467 1468 1469 1470 1472 1473 1475 1476 1478 1480 1481 1483 1484 1486 1488 1490 1491 1493 1494 1496 1498 1500 1501 1503 1505 1506 1508 1509 1511 1512
1473 1472 1470 1469 1468 1467 1466 1465 1465 1465 1465 1465 1465 1466 1467 1468 1469 1470 1470 1471 1473 1474 1476 1477 1479 1481 1482 1484 1486 1488 1489 1490 1492 1494 1496 1497 1498 1500 1502 1504 1505 1506 1507
1473 1471 1470 1468 1467 1465 1464 1463 1463 1463 1463 1463 1463 1464 1465 1465 1466 1467 1468 1469 1470 1471 1472 1474 1475 1477 1479 1481 1482 1484 1485 1487 1488 1490 1492 1493 1495 1496 1498 1500 1500 1502 1503
1472 1470 1469 1467 1466 1464 1463 1462 1461 1461 1461 1462 1462 1462 1462 1463 1464 1464 1465 1466 1468 1468 1470 1471 1473 1474 1476 1477 1479 1481 1482 1483 1484 1486 1488 1490 1491 1493 1494 1495 1496 1497 1498
1471 1469 1467 1466 1464 1463 1462 1461 1460 1460 1460 1460 1460 1460 1460 1461 1461 1462 1463 1464 1465 1466 1467 1468 1470 1471 1473 1474 1476 1477 1479 1480 1481 1482 1484 1486 1487 1489 1490 1491 1492 1493 1494
1469 1467 1466 1464 1463 1462 1461 1459 1458 1458 1458 1458 1458 1458 1458 1458 1459 1459 1460 1461 1463 1463 1464 1465 1467 1468 1470 1471 1473 1474 1476 1477 1478 1479 1481 1482 1484 1485 1487 1487 1488 1490 1490
1468 1466 1464 1462 1461 1460 1459 1458 1457 1457 1456 1456 1455 1455 1455 1456 1456 1457 1458 1459 1460 1461 1461 1463 1464 1465 1467 1468 1470 1471 1473 1474 1475 1476 1478 1479 1480 1481 1482 1483 1484 1485 1486
1466 1464 1462 1461 1459 1458 1457 1456 1456 1455 1454 1453 1453 1453 1453 1454 1455 1455 1456 1457 1457 1458 1459 1460 1461 1463 1464 1465 1467 1468 1470 1471 1472 1473 1474 1475 1476 1477 1478 1479 1480 1481 1482
1464 1463 1461 1459 1458 1457 1456 1455 1454 1453 1452 1452 1451 1451 1452 1452 1452 1453 1454 1455 1456 1456 1457 1458 1459 1460 1461 1463 1464 1465 1466 1468 1469 1470 1471 1471 1472 1473 1474 1475 1476 1477 1478
1462 1461 1459 1458 1456 1455 1453 1452 1451 1451 1450 1450 1449 1449 1450 1450 1450 1451 1451 1452 1453 1454 1455 1456 1457 1458 1459 1460 1461 1462 1463 1464 1466 1467 1467 1467 1468 1469 1470 1471 1472 1473 1474